Volver al catálogo

FLOCK 4H 4

ActivoCienciaSSO
NORAD 66707·PAYLOAD·🇺🇸 United States

Lanzado Nov 28, 2025 desde Vandenberg Space Force Base

Loading…

Próximos Pases (próximas 24 horas)

TLE

ActualizadoSource: CelesTrak SupGP

Época: Sep 14, 2026, 14:44 UTC

1 66707C 25276AT  26257.61423611  .00008047  00000+0  36670-3 0  2574
2 66707  97.4154 329.7138 0005784  62.5615 280.3202 15.20716890    17

Sigue FLOCK 4H 4 en tiempo real con AllMySat

Download on the App Store